TimeEDT,TemperatureF,Dew PointF,Humidity,Sea Level PressureIn,VisibilityMPH,Wind Direction,Wind SpeedMPH,Gust SpeedMPH,PrecipitationIn,Events,Conditions,WindDirDegrees,DateUTC
12:38 AM,71.6,69.8,94,29.98,6.0,Calm,Calm,-,0.01,Rain,Light Rain,0,2013-08-01 04:38:00
12:45 AM,71.6,69.8,94,29.98,6.0,Calm,Calm,-,0.01,Rain,Light Rain,0,2013-08-01 04:45:00
12:53 AM,71.1,69.1,93,29.97,6.0,Calm,Calm,-,0.01,,Mostly Cloudy,0,2013-08-01 04:53:00
12:59 AM,71.6,69.8,94,29.99,7.0,NNE,6.9,-,N/A,,Mostly Cloudy,20,2013-08-01 04:59:00
1:53 AM,69.1,68.0,96,29.96,5.0,Calm,Calm,-,N/A,,Mostly Cloudy,0,2013-08-01 05:53:00
2:53 AM,68.0,66.0,93,29.96,7.0,Calm,Calm,-,N/A,,Clear,0,2013-08-01 06:53:00
3:53 AM,66.9,64.9,93,29.96,7.0,Calm,Calm,-,N/A,,Clear,0,2013-08-01 07:53:00
4:53 AM,66.0,64.9,96,29.96,5.0,Calm,Calm,-,N/A,,Scattered Clouds,0,2013-08-01 08:53:00
4:58 AM,66.2,64.4,94,29.98,5.0,Calm,Calm,-,N/A,,Mostly Cloudy,0,2013-08-01 08:58:00
5:12 AM,66.2,64.4,94,29.97,5.0,Calm,Calm,-,N/A,,Mostly Cloudy,0,2013-08-01 09:12:00
5:53 AM,64.9,64.0,97,29.97,4.0,Calm,Calm,-,N/A,,Mostly Cloudy,0,2013-08-01 09:53:00
6:53 AM,64.9,64.0,97,29.98,3.0,Calm,Calm,-,N/A,,Overcast,0,2013-08-01 10:53:00
7:44 AM,66.2,64.4,94,30.01,4.0,Calm,Calm,-,N/A,,Overcast,0,2013-08-01 11:44:00
7:53 AM,66.0,64.9,96,29.99,3.0,Calm,Calm,-,N/A,,Mostly Cloudy,0,2013-08-01 11:53:00
8:11 AM,66.2,64.4,94,30.01,4.0,Calm,Calm,-,N/A,,Scattered Clouds,0,2013-08-01 12:11:00
8:46 AM,69.8,66.2,88,30.02,6.0,Calm,Calm,-,N/A,,Mostly Cloudy,0,2013-08-01 12:46:00
8:53 AM,69.1,66.0,90,30.00,6.0,Calm,Calm,-,N/A,,Mostly Cloudy,0,2013-08-01 12:53:00
9:06 AM,69.8,66.2,88,30.02,8.0,Variable,3.5,-,N/A,,Overcast,0,2013-08-01 13:06:00
9:41 AM,71.6,66.2,83,30.03,10.0,NW,3.5,-,N/A,,Scattered Clouds,320,2013-08-01 13:41:00
9:53 AM,72.0,64.9,78,30.01,10.0,Variable,3.5,-,N/A,,Partly Cloudy,0,2013-08-01 13:53:00
10:53 AM,75.0,64.0,69,30.01,10.0,North,4.6,-,N/A,,Clear,350,2013-08-01 14:53:00
11:53 AM,77.0,61.0,58,30.02,10.0,North,8.1,-,N/A,,Clear,350,2013-08-01 15:53:00
12:53 PM,79.0,60.1,52,30.02,10.0,North,6.9,16.1,N/A,,Partly Cloudy,350,2013-08-01 16:53:00
1:53 PM,80.1,61.0,52,30.01,10.0,NW,5.8,-,N/A,,Scattered Clouds,310,2013-08-01 17:53:00
2:53 PM,81.0,59.0,47,30.00,10.0,Variable,6.9,-,N/A,,Scattered Clouds,0,2013-08-01 18:53:00
3:53 PM,80.1,60.1,50,29.99,10.0,WNW,5.8,-,N/A,,Partly Cloudy,290,2013-08-01 19:53:00
4:53 PM,81.0,57.9,45,29.98,10.0,Variable,5.8,-,N/A,,Partly Cloudy,0,2013-08-01 20:53:00
5:53 PM,81.0,57.9,45,29.98,10.0,WNW,6.9,-,N/A,,Clear,300,2013-08-01 21:53:00
6:53 PM,79.0,57.9,48,29.97,10.0,Variable,4.6,-,N/A,,Clear,0,2013-08-01 22:53:00
7:53 PM,77.0,60.1,56,29.96,10.0,Calm,Calm,-,N/A,,Clear,0,2013-08-01 23:53:00
8:53 PM,70.0,64.0,81,29.97,10.0,Calm,Calm,-,N/A,,Clear,0,2013-08-02 00:53:00
9:53 PM,66.0,62.1,87,29.98,10.0,Calm,Calm,-,N/A,,Clear,0,2013-08-02 01:53:00
10:53 PM,64.0,61.0,90,29.98,10.0,Calm,Calm,-,N/A,,Clear,0,2013-08-02 02:53:00
11:53 PM,63.0,60.1,90,29.99,10.0,Calm,Calm,-,N/A,,Clear,0,2013-08-02 03:53:00